SCP
1 1 2 2 1 0 0 0 0 0 0 0 0 0 0 0 0 0 0 0 0 0 1 1 0 0 0 0 0 0 0 0 0 0 0 0 0 0 0 0 0 0 0 0 0 0 0 0 0
1 1 2 1 1 0 0 0 0 0 0 0 0 0 0 0 0 0 0 0 0 0 0 1 1 0 0 0 0 0 0 0 0 0 0 0 0 0 0 0 0 0 0 0 0 0 0 0 0
2 2 2 1 0 0 0 0 0 0 0 0 0 0 0 0 0 0 0 0 0 0 0 1 1 0 0 0 0 0 0 0 0 0 0 0 0 0 0 0 0 0 0 0 0 0 0 0 0
2 2 1 0 0 0 0 0 0 0 0 0 0 0 0 0 0 0 0 0 0 0 0 1 1 1 0 1 0 0 0 0 0 0 0 0 0 0 0 0 0 0 0 0 0 0 0 0 0
1 1 1 0 0 0 1 1 1 0 0 0 0 1 1 1 1 0 0 0 0 0 1 1 1 1 1 1 0 0 0 0 0 0 0 0 0 0 0 0 0 0 0 0 0 0 0 0 0
1 0 0 0 0 0 1 1 1 1 1 0 0 1 1 1 1 1 0 0 0 0 1 1 1 1 0 0 0 0 0 0 0 0 0 0 0 0 0 0 0 0 0 0 0 0 0 0 0
0 0 0 0 0 0 0 1 1 1 1 1 1 1 1 1 1 1 1 0 1 1 1 1 1 1 1 1 1 0 0 0 0 0 0 1 1 1 1 1 0 0 0 0 0 0 0 0 0
0 0 0 0 0 0 0 1 1 1 1 1 1 1 1 2 2 1 1 1 1 1 0 0 1 1 1 1 1 1 1 1 1 1 1 1 1 1 1 1 1 0 0 0 0 0 0 0 0
0 0 0 0 0 0 0 1 1 1 1 1 1 1 2 2 2 2 1 1 1 1 1 0 0 1 1 1 1 1 1 1 1 1 1 1 1 1 1 1 0 0 0 0 0 0 0 0 0
0 0 0 0 0 0 0 1 1 1 1 1 2 2 3 3 2 2 1 1 1 1 1 0 0 0 1 1 1 1 1 1 1 1 1 1 1 1 1 1 0 0 0 0 0 0 0 0 0
0 0 0 0 0 0 0 1 1 1 1 1 2 3 4 3 2 2 1 1 1 1 1 1 1 1 1 1 1 1 1 1 2 2 1 1 1 1 1 1 1 0 0 0 0 0 0 0 0
0 0 0 0 0 0 1 1 1 1 1 2 3 4 4 3 2 1 1 1 1 1 1 1 1 1 1 1 1 2 2 2 2 2 2 2 2 2 2 1 1 0 0 0 0 0 0 0 0
0 0 0 0 1 1 1 1 1 1 2 3 4 4 4 3 2 1 1 1 1 2 2 2 2 2 2 2 2 3 3 3 3 3 3 3 3 3 2 1 0 0 0 0 0 0 0 0 0
0 0 0 0 1 1 1 1 1 2 2 3 3 3 3 2 2 2 1 1 2 2 3 2 2 2 3 3 3 3 3 3 3 4 4 4 3 3 2 1 0 0 0 0 0 0 0 0 0
0 0 0 0 1 1 1 1 1 2 2 2 2 2 2 2 2 2 2 2 3 3 3 3 2 2 3 3 3 3 3 3 3 4 4 3 3 2 2 1 0 0 0 0 0 0 0 0 0
0 0 0 0 0 1 1 1 1 2 2 2 2 2 2 2 2 2 2 2 3 3 3 3 2 2 2 2 2 3 3 3 3 3 3 3 2 1 1 1 0 0 0 0 0 0 0 0 0
0 0 0 0 0 1 1 1 1 1 2 2 2 2 2 2 2 2 2 2 2 3 3 2 2 2 2 2 2 2 2 2 2 2 2 2 1 1 0 0 0 0 0 0 0 0 0 0 0
0 0 0 0 0 1 1 1 1 1 1 1 1 1 2 2 2 2 2 2 3 3 3 3 3 2 2 2 2 2 2 2 2 2 2 1 1 0 0 0 0 0 0 0 0 0 0 0 0
0 0 0 0 0 1 1 1 1 1 1 1 1 1 2 2 2 3 3 3 3 3 4 4 3 2 2 2 2 2 2 2 2 2 1 1 0 0 0 0 0 0 0 0 0 0 0 0 0
0 0 0 0 0 1 1 1 1 1 1 1 1 1 1 2 2 3 3 3 3 4 5 4 3 3 2 2 2 2 2 2 2 2 1 1 0 0 0 0 0 0 1 0 0 0 1 1 1
0 0 0 0 0 0 1 1 1 1 1 1 1 1 1 2 2 3 3 3 3 4 5 4 3 3 2 2 2 2 2 1 1 1 1 1 1 0 0 0 1 1 0 0 0 1 1 1 1
0 0 0 0 0 0 0 1 1 1 1 1 1 1 1 2 2 3 3 3 3 4 4 3 2 2 2 2 2 2 2 1 1 1 1 1 1 1 1 1 1 1 1 0 1 1 1 1 1
0 0 0 0 0 0 0 0 1 1 2 2 2 2 2 2 2 2 3 3 4 4 3 2 2 2 2 2 2 2 2 1 1 1 1 1 1 1 1 1 1 1 1 1 1 1 1 1 1
0 0 0 0 0 0 0 0 1 1 1 2 2 2 2 2 2 2 3 3 3 3 3 2 2 2 2 2 2 2 1 1 2 2 2 1 1 1 1 1 1 1 1 1 1 1 1 1 1
0 0 0 0 0 0 0 1 1 1 1 2 2 2 2 2 2 2 2 3 3 2 2 2 2 2 3 3 2 2 2 2 2 2 2 1 1 1 1 1 2 2 2 2 2 2 2 2 2
0 0 0 0 0 0 0 1 1 1 2 2 2 2 2 2 2 2 2 2 2 2 2 2 2 3 3 3 3 2 2 2 2 2 2 1 1 1 1 1 1 2 2 2 2 2 2 2 2
0 0 0 0 0 0 0 1 1 1 2 2 2 2 2 1 1 2 2 2 2 2 3 3 3 3 3 3 3 3 2 2 2 2 2 1 1 1 1 1 1 1 2 2 2 2 2 2 2
0 0 0 0 0 0 0 0 1 1 1 2 2 1 1 1 1 1 2 2 3 3 4 4 3 3 3 2 3 3 2 2 2 2 2 2 1 1 1 1 1 1 2 2 2 2 2 2 2
0 0 0 0 0 0 0 0 1 1 1 2 2 1 1 1 1 2 2 2 4 5 5 4 5 5 4 2 2 2 2 2 2 2 2 2 2 2 1 1 1 1 2 2 3 2 2 1 1
0 0 0 0 0 0 0 1 1 1 2 2 2 2 1 1 2 2 2 3 4 5 5 4 6 7 5 3 3 3 2 2 2 2 1 1 1 1 1 1 1 1 2 2 3 2 2 2 1
Wind_Speed
9 7 6 5 2 10 16 13 10 9 8 8 8 6 8 10 9 11 10 11 12 12 13 13 10 11 11 12 12 12 12 12 12 12 12 12 12 12 12 12 13 13 13 13 13 13 13 13 13
5 4 5 2 6 12 14 12 12 11 9 8 7 7 9 10 10 11 11 11 12 12 12 12 12 11 11 11 11 11 12 12 11 11 11 11 11 12 12 13 13 13 13 13 13 13 13 13 13
5 5 4 5 13 14 14 11 11 10 7 5 6 8 8 9 9 9 11 13 12 11 12 13 11 11 11 11 11 11 11 11 11 11 11 11 12 12 12 13 13 13 13 13 12 12 13 13 13
5 5 1 9 16 14 11 9 8 8 8 6 7 10 9 8 6 10 14 12 12 12 12 14 10 11 11 10 10 10 10 11 11 11 11 11 12 12 12 12 12 12 12 12 12 12 12 12 13
5 1 9 13 15 12 9 7 5 6 6 7 7 11 10 7 10 14 13 11 11 11 11 14 10 10 10 10 9 10 10 10 10 10 11 11 11 11 11 12 12 12 12 12 12 12 12 12 12
2 2 9 13 14 10 8 7 6 8 9 8 9 11 9 8 11 12 11 10 10 10 11 13 11 10 9 9 9 9 9 9 10 10 10 10 11 11 11 11 11 11 11 11 11 11 11 11 11
3 7 11 12 11 10 8 6 6 7 8 7 6 9 10 10 10 11 10 9 8 9 10 10 12 11 10 9 8 9 9 9 9 9 10 10 10 10 10 10 10 11 11 11 10 10 10 11 11
3 4 10 11 11 11 8 6 5 6 8 7 3 6 10 12 12 11 10 9 8 7 8 9 8 8 9 10 9 8 8 8 9 9 9 10 10 10 9 10 10 10 10 10 10 10 10 10 10
4 4 10 10 9 8 7 7 6 6 8 6 5 7 13 17 14 12 11 10 9 7 5 6 8 7 6 7 10 9 9 8 8 9 8 6 6 8 8 11 10 10 10 10 10 10 9 9 10
2 7 11 8 6 6 6 5 6 6 7 8 10 12 16 16 14 13 12 11 10 9 8 5 5 6 6 5 7 5 5 6 4 5 6 4 4 4 7 10 8 9 9 9 8 8 9 6 6
4 8 7 5 5 4 5 5 4 4 6 6 10 15 16 15 12 11 10 9 9 9 8 7 5 4 4 4 4 3 3 4 4 5 4 3 4 4 5 5 7 7 8 6 8 7 4 3 3
4 6 5 4 3 2 4 5 5 4 7 7 10 15 15 14 12 10 9 7 8 7 7 7 6 4 3 2 3 3 3 3 3 5 4 4 2 2 3 2 4 4 3 3 3 2 3 3 3
4 4 4 3 2 3 4 5 5 6 7 9 12 13 13 12 10 9 7 6 6 7 7 7 6 5 4 3 2 3 3 3 4 3 3 3 3 3 3 2 1 2 3 4 3 2 3 3 3
3 2 3 4 4 4 4 5 4 6 7 10 11 11 11 10 10 9 8 7 7 7 7 7 7 7 6 4 3 3 3 3 2 3 3 4 3 3 3 3 2 2 2 2 2 3 3 2 2
2 2 4 4 3 3 4 5 4 6 8 9 10 9 9 9 9 9 9 8 8 7 7 8 8 7 6 6 5 4 3 4 3 3 3 4 4 3 3 3 3 2 2 2 2 2 2 2 3
5 5 4 5 1 2 6 5 7 6 8 8 8 8 8 8 8 8 8 8 8 8 8 8 7 7 7 5 4 3 3 3 2 3 3 4 3 4 3 3 2 2 2 2 2 3 2 2 2
6 3 3 5 2 1 3 4 7 6 7 7 7 7 7 7 7 7 7 7 7 7 7 7 7 7 7 6 5 4 3 3 3 3 3 4 5 5 4 3 2 3 2 3 3 3 2 2 2
2 2 2 2 2 2 2 3 5 6 6 6 7 6 7 7 7 6 6 7 7 7 6 6 6 6 6 5 4 3 4 4 3 3 4 4 5 5 4 4 4 4 3 3 2 2 2 2 3
1 2 1 3 1 2 1 2 3 5 5 6 6 6 6 5 6 6 7 7 7 7 7 7 6 6 6 5 5 4 4 4 4 4 5 5 5 5 4 4 3 4 3 3 4 4 4 4 3
5 4 2 3 2 2 1 1 3 4 4 4 5 5 5 6 6 6 7 7 8 7 7 7 7 7 7 5 4 3 2 3 4 4 4 5 6 6 5 5 4 4 3 5 5 5 4 3 3
6 5 1 1 3 4 4 5 5 5 4 4 4 4 5 5 6 7 7 7 7 7 7 6 6 6 7 6 4 3 3 3 4 4 4 6 6 6 5 5 5 4 5 5 5 5 6 4 4
5 1 2 3 6 1 4 1 6 4 5 5 5 5 5 5 5 6 6 6 7 7 7 6 6 7 6 6 5 5 4 4 4 3 3 4 5 6 6 6 5 5 5 4 6 6 5 5 5
1 2 3 4 4 4 2 4 6 4 3 4 5 5 5 6 6 6 5 5 5 6 6 6 6 6 6 6 6 6 5 4 3 4 4 4 4 5 5 5 5 6 6 5 5 4 6 5 5
5 5 5 6 7 4 1 4 3 4 2 3 5 5 6 6 6 6 5 5 5 5 5 6 6 6 6 6 6 6 5 4 4 4 4 4 3 4 5 5 5 6 5 5 5 5 7 6 6
8 7 6 7 6 2 2 4 3 5 2 2 4 5 6 6 7 7 6 6 5 5 5 5 6 6 5 5 5 5 5 4 4 4 4 4 3 3 4 4 4 5 5 5 4 5 5 5 6
9 10 7 5 3 3 5 2 4 3 3 3 5 6 6 6 6 7 6 6 5 5 5 5 5 5 5 5 5 4 4 4 3 3 3 3 3 3 3 4 4 4 4 4 4 4 4 3 4
9 9 6 6 4 4 3 3 5 5 5 6 6 7 7 6 6 6 6 6 6 5 4 4 5 4 4 5 5 4 4 3 2 2 3 2 2 3 3 3 4 3 3 3 3 2 3 3 4
5 6 5 7 5 6 4 4 3 5 4 5 6 6 6 6 7 6 6 5 5 5 4 4 4 4 4 4 4 3 3 3 2 2 2 2 2 2 2 3 3 2 2 2 2 2 3 3 3
8 7 7 6 5 6 3 3 4 4 4 4 5 6 6 6 7 7 6 5 5 5 5 5 5 4 4 3 3 3 3 3 2 2 1 2 1 1 2 2 2 2 2 1 1 2 2 2 2
10 9 9 7 5 6 6 3 6 3 3 3 5 6 6 6 7 7 7 6 5 5 5 5 5 5 4 4 4 3 2 2 2 2 1 1 1 1 1 1 1 1 1 1 1 1 1 1 1
Wind_Direction
192 196 220 235 157 73 67 67 70 77 73 70 67 54 56 42 39 81 108 120 123 123 121 125 114 112 109 108 108 108 108 108 108 108 109 110 110 109 109 108 107 106 104 103 102 102 103 103 102
188 199 229 240 69 75 68 64 66 66 84 93 80 76 74 67 68 102 122 126 133 126 126 118 116 115 112 110 109 108 108 107 107 108 108 107 108 109 109 107 106 107 106 104 103 105 104 102 101
199 235 271 67 61 65 72 70 78 86 90 92 86 64 61 79 99 114 126 138 134 122 119 113 122 117 115 112 110 109 108 107 107 106 106 106 107 107 107 107 106 107 107 106 105 106 105 103 102
225 214 141 73 72 67 73 80 91 101 87 83 97 89 79 73 100 120 133 141 131 130 128 119 126 119 117 114 112 110 108 109 108 106 105 105 105 105 106 105 106 105 104 105 105 106 108 107 107
241 189 87 78 74 74 72 72 78 83 85 92 96 99 89 79 109 125 138 139 134 130 123 123 126 122 119 117 115 112 110 108 107 106 104 105 105 106 106 105 107 107 105 104 106 109 109 108 109
233 80 76 77 79 78 80 86 90 88 97 101 105 103 91 113 126 134 138 141 134 130 126 123 128 124 123 120 117 113 110 109 108 107 107 105 104 105 105 106 109 108 107 108 108 109 110 111 111
26 65 73 76 82 82 75 85 90 100 104 98 104 106 116 132 133 137 138 139 134 133 132 135 142 138 132 122 119 115 111 110 110 110 110 109 107 106 107 108 110 111 111 111 110 109 112 115 115
335 85 81 75 74 78 89 96 86 85 90 102 108 117 137 141 143 142 142 141 135 137 137 139 142 139 147 139 127 121 117 115 114 112 112 118 120 117 122 122 111 113 113 112 112 111 113 117 118
278 68 70 65 65 82 101 109 99 98 111 106 80 81 120 138 148 150 150 149 149 148 151 148 141 144 148 138 134 142 136 129 140 130 131 156 140 128 137 103 112 113 113 114 117 117 118 128 127
335 63 63 56 60 76 97 104 121 134 125 118 109 107 126 145 156 161 162 162 163 159 159 156 154 152 154 140 139 152 148 139 144 129 140 136 115 108 108 111 113 114 119 123 122 130 154 178 141
36 59 65 68 67 79 108 115 127 130 104 123 140 142 149 155 163 166 166 167 162 160 162 162 158 157 153 146 150 139 133 133 139 127 132 124 137 138 134 138 140 141 155 143 145 173 158 124 100
63 64 56 60 76 93 99 113 109 70 70 100 132 147 154 162 167 169 166 166 158 160 162 162 157 163 174 151 142 160 154 149 143 140 164 148 141 141 126 144 140 154 139 128 142 129 114 118 127
75 56 57 72 103 107 118 110 96 90 101 115 130 147 157 163 163 164 161 162 168 169 169 167 168 174 175 167 191 160 162 163 149 149 156 163 162 153 142 133 143 150 135 150 148 134 129 140 144
49 70 87 83 103 130 134 118 119 102 122 131 142 153 160 163 166 162 167 174 179 178 175 176 181 186 184 182 190 175 177 169 161 167 163 190 175 155 166 161 167 160 164 126 155 149 163 162 132
194 172 132 91 105 128 174 137 112 126 142 145 151 154 158 166 171 175 180 184 183 184 184 186 187 189 190 192 196 190 192 177 178 162 176 196 190 169 192 172 181 168 163 155 191 171 184 186 174
210 214 153 102 85 147 249 98 103 144 160 155 155 157 165 172 181 182 185 189 185 185 186 194 195 183 189 199 207 205 198 190 190 182 187 201 198 195 211 197 181 174 193 190 187 208 204 187 195
207 205 114 122 99 199 253 88 113 152 167 162 163 163 169 172 184 183 185 184 183 185 186 192 200 191 194 198 200 205 201 213 217 203 209 201 208 202 213 208 181 207 203 211 220 186 213 197 202
181 189 136 109 92 238 215 105 127 154 171 167 168 169 172 177 179 178 179 177 178 182 185 191 195 191 194 193 196 205 214 213 216 216 214 214 214 208 216 206 197 224 212 219 226 225 221 230 224
272 248 145 78 62 260 192 127 138 156 170 170 175 172 174 177 166 169 177 179 178 179 185 189 188 183 192 192 195 197 208 217 219 219 212 213 220 212 222 231 190 229 222 228 224 220 209 221 218
224 229 176 127 91 275 232 151 134 156 174 181 182 178 179 171 163 165 175 180 183 182 186 188 190 188 198 193 191 198 208 221 222 227 214 218 216 215 212 220 222 216 228 226 229 228 240 230 213
218 245 239 135 171 201 247 182 154 149 165 174 184 178 173 171 165 165 175 179 180 183 187 191 190 190 198 193 191 194 198 221 217 211 212 218 220 219 228 218 232 227 234 227 229 227 229 236 228
204 212 244 219 241 163 285 268 132 145 161 167 173 173 169 164 158 157 167 176 181 181 182 186 185 188 191 191 200 206 213 215 219 219 213 213 222 224 218 225 228 236 242 237 237 227 234 238 242
119 133 211 230 246 253 229 284 113 144 142 140 154 163 159 156 155 157 161 168 175 175 177 178 181 186 189 194 201 214 222 222 217 218 214 226 217 221 223 227 231 231 239 239 246 239 239 237 244
154 173 181 223 239 235 29 289 110 96 80 113 129 143 151 152 154 154 154 156 163 167 173 175 179 186 189 196 202 215 221 228 228 226 228 223 216 220 222 228 230 232 235 239 241 238 232 243 251
205 216 213 214 218 177 111 266 67 68 77 102 124 134 145 151 153 154 158 159 163 170 172 173 178 185 188 195 204 212 218 224 230 238 232 238 234 226 224 237 232 232 230 235 241 237 244 241 244
212 233 248 260 241 158 173 236 84 90 114 132 130 130 138 145 150 152 156 159 162 167 171 172 173 178 184 191 199 207 214 225 229 237 257 239 242 245 241 232 230 230 232 237 235 243 241 244 242
203 229 261 258 265 256 165 145 136 138 144 145 140 137 137 139 145 150 155 157 160 164 168 174 169 173 184 190 190 195 203 227 240 235 242 249 251 241 234 238 233 228 233 244 242 242 247 243 242
261 214 219 248 248 243 196 201 154 155 156 155 153 147 139 144 148 149 150 156 157 157 155 164 167 172 182 189 195 182 188 196 219 244 254 265 258 256 248 245 235 228 223 226 233 229 227 229 238
184 203 223 238 259 266 226 144 87 149 151 156 157 152 148 150 148 147 145 146 152 154 154 161 159 162 172 180 182 178 180 180 196 222 241 253 267 247 243 246 236 220 216 221 230 239 230 231 236
215 210 207 222 220 257 276 109 100 128 132 144 147 147 148 147 143 143 141 141 145 148 151 152 161 164 168 168 170 168 172 175 194 200 216 241 257 235 215 216 198 208 187 193 212 248 239 244 247